Location: Godiavel Galaoual
(15.2485°N, 12.6604°W)
Time: 14:55:13
(UTC+00:00)

ISS - Visible Passes

Search period start: 04 June 2020 00:00
Search period end: 14 June 2020 00:00
Orbit: 417 x 419 km, 51.6° (Epoch: 05 June)

Date Brightness Start Highest point End Pass type
(mag) Time Alt. Az. Time Alt. Az. Time Alt. Az.
05 Jun -1.0 21:18:30 10° N 21:19:14 14° N 21:19:14 14° N visible
06 Jun -1.4 20:31:55 10° NNE 20:33:22 12° NE 20:33:27 12° NE visible
07 Jun -1.7 21:18:56 10° NW 21:20:41 28° NW 21:20:41 28° NW visible
08 Jun -3.5 20:31:06 10° NNW 20:34:23 52° NE 20:35:02 43° E visible
09 Jun -2.2 19:43:43 10° N 19:46:28 23° NE 19:49:13 10° ESE visible
09 Jun -0.8 21:21:28 10° W 21:22:25 12° WSW 21:22:25 12° WSW visible
10 Jun -2.0 20:32:18 10° WNW 20:35:11 27° SW 20:36:54 18° S visible
11 Jun -3.4 19:44:01 10° NW 19:47:20 65° SW 19:50:39 10° SSE visible
13 Jun -1.0 19:46:19 10° W 19:48:01 13° SW 19:49:42 10° SSW visible
